San Angelo's Hourly Summary for Sunday, March 12, 2017
Hour Temp
(f)
RH
(%)
Solar Rad.
(MJ/m2)
Rainfall
(in)
Wind
(mph)
3/12/2017 12:00 AM 51 67 0 0 12.28
3/12/2017 1:00 AM 49 72 0 0 12.77
3/12/2017 2:00 AM 47 79 0 0 10.07
3/12/2017 3:00 AM 46 83 0 0 9.76
3/12/2017 4:00 AM 44 93 0 0 10.4
3/12/2017 5:00 AM 44 91 0 0 9.6
3/12/2017 6:00 AM 44 90 0 0 9.37
3/12/2017 7:00 AM 43 94 0 0 8.85
3/12/2017 8:00 AM 43 94 0 0 8.49
3/12/2017 9:00 AM 42 92 0.08 0 6.45
3/12/2017 10:00 AM 43 90 0.19 0 5.95
3/12/2017 11:00 AM 43 91 0.29 0 4.84
3/12/2017 12:00 PM 43 88 0.47 0 4.54
3/12/2017 1:00 PM 44 87 0.57 0 3.7
3/12/2017 2:00 PM 46 82 0.69 0 2.42
3/12/2017 3:00 PM 47 79 0.78 0 1.02
3/12/2017 4:00 PM 49 70 1.19 0 1.19
3/12/2017 5:00 PM 51 69 1.23 0 2.32
3/12/2017 6:00 PM 53 67 0.92 0 3.59
3/12/2017 7:00 PM 55 66 0.52 0 5.49
3/12/2017 8:00 PM 55 69 0.07 0 4.92
3/12/2017 9:00 PM 55 71 0 0 3.38
3/12/2017 10:00 PM 54 75 0 0 2.49
3/12/2017 11:00 PM 54 78 0 0 1.58
Data Summary 47 80 7.00 0.00 6.06